This is the latest recevied weather packets stored in our database for station/object N8ESC. If no packets are shown the sender has not sent any weather packets the latest 10 day(s).
| Time | Temp. | Humidity | Pressure | Rain* | Wind** | Luminosity | Snow |
|---|---|---|---|---|---|---|---|
| 1777359450 | 9.44° C | 99% | 994.7 hPa | 0 mm | - | 0 W/m² | - |
| 1777359147 | 9.44° C | 99% | 994.9 hPa | 0 mm | - | 0 W/m² | - |
| 1777358845 | 9.44° C | 99% | 994.9 hPa | 0 mm | - | 0 W/m² | - |
| 1777358542 | 9.44° C | 99% | 994.9 hPa | 0 mm | - | 0 W/m² | - |
| 1777358240 | 9.44° C | 99% | 994.8 hPa | 0 mm | - | 0 W/m² | - |
| 1777357938 | 10° C | 99% | 995.1 hPa | 0 mm | - | 0 W/m² | - |
| 1777357635 | 10° C | 99% | 995.5 hPa | 4.83 mm | - | 0 W/m² | - |
| 1777357331 | 9.44° C | 99% | 995.4 hPa | 6.1 mm | - | 0 W/m² | - |
| 1777357028 | 9.44° C | 99% | 995.4 hPa | 1.78 mm | - | 0 W/m² | - |
| 1777356725 | 8.89° C | 99% | 995.5 hPa | 1.78 mm | - | 0 W/m² | - |
| 1777356423 | 8.89° C | 99% | 995.5 hPa | 0 mm | - | 0 W/m² | - |
| 1777356119 | 8.89° C | 99% | 995.6 hPa | 0 mm | - | 0 W/m² | - |
| 1777355816 | 8.89° C | 99% | 995.3 hPa | 1.27 mm | - | 0 W/m² | - |
| 1777355513 | 8.89° C | 99% | 995.4 hPa | 0 mm | - | 0 W/m² | - |
| 1777355209 | 8.89° C | 99% | 995.3 hPa | 0 mm | - | 0 W/m² | - |
| 1777354905 | 8.89° C | 99% | 995.6 hPa | 0 mm | - | 0 W/m² | - |
| 1777354602 | 9.44° C | 99% | 995.7 hPa | 0 mm | - | 0 W/m² | - |
| 1777354297 | 9.44° C | 99% | 996 hPa | 0 mm | - | 0 W/m² | - |
| 1777353995 | 9.44° C | 99% | 996 hPa | 0 mm | - | 0 W/m² | - |
| 1777353691 | 9.44° C | 99% | 996.4 hPa | 0 mm | - | 0 W/m² | - |
| 1777353389 | 9.44° C | 99% | 996.2 hPa | 0 mm | - | 0 W/m² | - |
| 1777353087 | 9.44° C | 99% | 995.9 hPa | 0 mm | - | 0 W/m² | - |
| 1777352786 | 9.44° C | 99% | 996.1 hPa | 0 mm | - | 0 W/m² | - |
| 1777352483 | 9.44° C | 99% | 996.1 hPa | 0 mm | - | 0 W/m² | - |
| 1777352180 | 9.44° C | 99% | 996.1 hPa | 0 mm | - | 0 W/m² | - |
* Rain latest hour (hover to see other rain measurements)
** Current wind speed in m/s (hover to see current wind gust speed)